Location: Forst
(46.9333°N, 15.4333°E)
Time: 16:16:41
(UTC+00:00)

Cosmos 2219 Rocket - Pass Details

Date: 01 December 2020
Orbit: 829 x 845 km, 71.0° (Epoch: 28 January)

Event Time Altitude Azimuth Distance (km) Brightness Sun altitude
Rises 15:39:33 0° 246° (WSW) 3,387 8.3 -5.0°
Reaches altitude 10° 15:42:27 10° 260° (W) 2,453 6.2 -5.5°
Maximum altitude 15:46:59 24° 314° (NW) 1,657 4.0 -6.2°
Drops below altitude 10° 15:51:31 10° 8° (N) 2,455 4.3 -6.9°
Sets 15:54:26 0° 22° (NNE) 3,390 4.9 -7.3°
